[[{"header":{"parameterUnit":"m.s-1","parameterCategory":1,"la1":30.2991,"la2":30.254,"lo1":-89.0895,"lo2":-89.0444,"dy":0.0017,"dx":0.0017,"nx":28,"ny":28,"refTime":"2025-02-27T03:00:00:Z","depth":0,"parameterNumber":2,"parameterNumberName":"U-component_of_WINDS"},"data":[0,0,0,0,0,0,0,0,0,0,0,0,0,0,0,0,0,0,0,0,0,0,0,0,0,0,0,0,0,0,0,0,0,0,0,0,0,0,0,0,0,0,0,0,0,0,0,0,0,0,0,0,0,0,0,0,0,0,1.928,1.928,0,1.932,1.9321,1.9321,1.9352,1.9352,1.9352,1.9352,1.9394,1.9394,1.9395,0,0,0,0,0,0,0,0,0,0,0,0,0,1.9228,1.9229,1.928,1.928,1.9281,1.932,1.9321,1.9321,1.9352,1.9352,1.9352,1.9352,1.9393,1.9394,1.9395,0,0,0,0,0,0,0,0,0,0,0,0,0,1.9258,1.9229,1.9279,1.93,1.9303,1.932,1.9321,1.9322,1.9351,1.9352,1.9352,1.9353,1.9393,1.9394,1.9395,1.9395,0,0,1.9399,1.94,0,0,0,0,0,0,0,0,1.9256,1.926,1.9297,1.9299,1.9302,1.9331,1.9318,1.9346,1.9351,1.9333,1.9352,1.9353,1.9372,1.9375,1.9382,1.9397,1.9399,1.9399,1.94,1.9401,1.9401,0,0,0,0,0,0,0,1.9254,1.9258,1.9296,1.9297,1.93,1.9308,1.9313,1.9324,1.935,1.9335,1.9337,1.9341,1.9374,1.9381,1.9383,1.94,1.9399,1.9401,1.9401,1.9402,1.9419,1.9419,0,0,0,0,0,0,1.9249,1.9256,1.9294,1.9297,1.928,1.9309,1.9314,1.9321,1.935,1.9355,1.9341,1.9343,1.9379,1.9382,1.9385,1.9389,1.9401,1.9402,1.9403,1.942,1.9419,1.9419,0,0,0,0,0,0,1.9248,1.9252,1.9293,1.9277,1.9283,1.9309,1.9317,1.9322,1.9329,1.9355,1.936,1.9343,1.9379,1.9383,1.9393,1.939,1.9403,1.9404,1.942,1.9419,1.9419,1.9394,0,0,0,0,0,0,1.9246,1.9251,1.9251,1.9277,1.9284,1.93,1.9317,1.9322,1.9331,1.9334,1.9358,1.9363,1.938,1.9391,1.9394,1.9392,1.9405,1.942,1.942,1.9419,1.9396,1.9393,1.9391,0,0,0,0,0,1.9244,1.9242,1.9251,1.9255,1.9284,1.93,1.9303,1.9323,1.9331,1.9331,1.9348,1.9362,1.939,1.9392,1.9396,1.9394,1.9421,1.942,1.9419,1.9397,1.9394,1.9391,0,0,0,0,0,0,1.9214,1.9246,1.9256,1.9262,1.9278,1.9305,1.9306,1.9319,1.9333,1.9335,1.9359,1.9364,1.9372,1.9384,1.9385,1.9397,1.9407,1.9407,1.9389,1.9386,1.9384,1.9381,1.9406,0,0,0,0,0,1.9209,1.9218,1.9245,1.9248,1.9256,1.9279,1.9287,1.9301,1.9318,1.9325,1.9342,1.9359,1.9372,1.9379,1.9392,1.9397,1.9404,1.9398,1.9396,1.9394,1.9394,1.94,1.9398,1.9417,1.9417,1.9417,0,0,1.9197,1.9215,1.922,1.9243,1.9257,1.9267,1.9285,1.9294,1.9302,1.9326,1.9337,1.9351,1.9371,1.9379,1.9383,1.9389,1.939,1.9393,1.9391,1.9393,1.9399,1.9397,1.9395,1.9416,1.9416,1.9416,0,0,1.918,1.9195,1.92,1.9214,1.9235,1.9251,1.9252,1.9277,1.9287,1.9299,1.9318,1.9328,1.9349,1.9363,1.9373,1.9364,1.9378,1.9367,1.9356,1.9361,1.9359,1.9358,1.9357,1.9356,1.9367,1.9367,1.9367,0,1.9163,1.9179,1.92,1.921,1.922,1.9243,1.9249,1.9261,1.9285,1.9292,1.9298,1.9327,1.9342,1.9354,1.9353,1.9359,1.9362,1.9365,1.9358,1.9357,1.9356,1.9355,1.9354,1.9366,1.9366,1.9366,1.9366,0,1.9157,1.9168,1.917,1.9193,1.9204,1.9211,1.9234,1.9242,1.9256,1.9271,1.9284,1.9303,1.9321,1.9325,1.9338,1.934,1.9343,1.9353,1.9365,1.9353,1.9352,1.9352,1.9364,1.9364,1.9365,1.9365,0,0,1.9123,1.916,1.916,1.9172,1.9198,1.9207,1.9216,1.9234,1.9241,1.9258,1.9267,1.9285,1.9295,1.9306,1.9321,1.9325,1.9319,1.9335,1.9336,1.9333,1.9325,1.9318,1.9317,1.9329,1.9329,1.9328,1.9324,0,1.9112,1.9129,1.9149,1.916,1.9171,1.9194,1.9202,1.9219,1.9235,1.9247,1.9264,1.9277,1.9288,1.9296,1.9301,1.9319,1.9318,1.9319,1.9338,1.9338,1.9333,1.9316,1.9308,1.9303,1.9324,1.9323,1.9323,0,1.9101,1.9117,1.9129,1.9156,1.9161,1.9168,1.9188,1.9198,1.9219,1.923,1.9243,1.926,1.9271,1.9281,1.9298,1.9298,1.9307,1.9317,1.9317,1.932,1.933,1.932,1.9302,1.9301,1.9323,1.9323,1.9323,0,1.9076,1.9101,1.9112,1.9121,1.9152,1.9157,1.917,1.9191,1.9201,1.9218,1.9226,1.9243,1.9253,1.9267,1.9288,1.9293,1.9304,1.9315,1.9314,1.9313,1.9315,1.9315,1.9299,1.932,1.932,1.932,1.932,0,1.9062,1.9069,1.9102,1.9108,1.9117,1.9141,1.9149,1.9164,1.9183,1.9194,1.9214,1.9224,1.9251,1.9264,1.928,1.9293,1.9297,1.9307,1.9311,1.9305,1.9304,1.9312,1.9313,1.9319,1.9319,1.9319,1.9319,0,1.9037,1.9058,1.9072,1.9101,1.9108,1.9114,1.9139,1.9147,1.9163,1.9177,1.9181,1.9208,1.9224,1.9247,1.927,1.9281,1.9292,1.9299,1.9285,1.9288,1.9287,1.9287,1.9276,1.9276,1.9295,1.9295,1.9295,0,1.9027,1.9033,1.9062,1.9071,1.9084,1.9098,1.9109,1.9133,1.9143,1.9168,1.9173,1.9192,1.9208,1.9234,1.9255,1.9274,1.9281,1.9276,1.9284,1.9279,1.9283,1.9283,1.9284,1.9274,1.9274,1.9274,1.9274,0,1.9007,1.9018,1.9033,1.9053,1.9066,1.9082,1.9099,1.9105,1.9133,1.9144,1.9162,1.9174,1.9199,1.9217,1.9239,1.9253,1.9268,1.9271,1.9272,1.9267,1.9259,1.9264,1.9281,1.9271,1.9271,1.9272,1.9272,1.9272,1.899,1.8997,1.902,1.9036,1.9052,1.9068,1.9078,1.9096,1.9111,1.9133,1.9147,1.9164,1.9186,1.9217,1.923,1.9245,1.9251,1.9252,1.9252,1.9252,1.9251,1.9256,1.9249,1.9249,1.9249,1.9249,1.9249,0,1.8973,1.8989,1.9004,1.9028,1.9042,1.9055,1.9075,1.9086,1.9101,1.912,1.9136,1.9157,1.9175,1.9199,1.9219,1.9226,1.9234,1.9231,1.9231,1.9234,1.9244,1.9242,1.9224,1.9224,1.9224,1.9224,1.9224,1.9224,1.8966,1.8979,1.8993,1.9014,1.903,1.9048,1.9059,1.9074,1.909,1.9112,1.9128,1.9143,1.9165,1.9187,1.9205,1.9211,1.9218,1.9213,1.9222,1.9231,1.9233,1.9235,1.9233,1.9214,1.9214,1.9211,1.9211,1.9211]},{"header":{"parameterUnit":"m.s-1","parameterCategory":1,"la1":30.2991,"la2":30.254,"lo1":-89.0895,"lo2":-89.0444,"dy":0.0017,"dx":0.0017,"nx":28,"ny":28,"refTime":"2025-02-27T03:00:00:Z","depth":0,"parameterNumber":3,"parameterNumberName":"V-component_of_WINDS"},"data":[0,0,0,0,0,0,0,0,0,0,0,0,0,0,0,0,0,0,0,0,0,0,0,0,0,0,0,0,0,0,0,0,0,0,0,0,0,0,0,0,0,0,0,0,0,0,0,0,0,0,0,0,0,0,0,0,0,0,-0.3211,-0.3211,0,-0.3217,-0.3217,-0.3217,-0.3241,-0.3242,-0.3242,-0.3243,-0.325,-0.325,-0.3249,0,0,0,0,0,0,0,0,0,0,0,0,0,-0.322,-0.3219,-0.3211,-0.3211,-0.3211,-0.3217,-0.3217,-0.3217,-0.3241,-0.3242,-0.3243,-0.3243,-0.325,-0.325,-0.3249,0,0,0,0,0,0,0,0,0,0,0,0,0,-0.322,-0.3219,-0.3211,-0.3223,-0.3225,-0.3217,-0.3217,-0.3217,-0.3241,-0.3242,-0.3243,-0.3244,-0.325,-0.325,-0.3249,-0.323,0,0,-0.3248,-0.3248,0,0,0,0,0,0,0,0,-0.322,-0.322,-0.3222,-0.3223,-0.3224,-0.3229,-0.3223,-0.3222,-0.3241,-0.3235,-0.3243,-0.3244,-0.3242,-0.3243,-0.3242,-0.323,-0.3231,-0.3248,-0.3247,-0.3247,-0.3247,0,0,0,0,0,0,0,-0.322,-0.3219,-0.3213,-0.3222,-0.3223,-0.3229,-0.323,-0.3223,-0.3234,-0.3235,-0.3237,-0.3238,-0.3243,-0.3243,-0.3242,-0.3231,-0.3248,-0.3247,-0.3247,-0.3247,-0.3205,-0.3204,0,0,0,0,0,0,-0.3218,-0.3219,-0.3213,-0.3213,-0.3224,-0.3228,-0.3229,-0.3227,-0.3234,-0.3236,-0.3237,-0.3239,-0.3243,-0.3243,-0.3243,-0.3222,-0.3247,-0.3247,-0.3247,-0.3206,-0.3205,-0.3204,0,0,0,0,0,0,-0.3218,-0.3217,-0.3213,-0.3217,-0.3217,-0.3227,-0.3224,-0.3226,-0.3226,-0.3235,-0.3237,-0.3234,-0.3244,-0.3243,-0.3233,-0.3223,-0.3247,-0.3246,-0.3207,-0.3206,-0.3204,-0.3179,0,0,0,0,0,0,-0.3218,-0.3217,-0.3209,-0.3216,-0.3216,-0.3203,-0.3223,-0.3226,-0.3225,-0.3227,-0.3233,-0.3235,-0.3244,-0.3234,-0.3233,-0.3222,-0.3246,-0.3208,-0.3206,-0.3205,-0.3181,-0.3178,-0.3174,0,0,0,0,0,-0.3218,-0.3202,-0.3209,-0.3208,-0.3207,-0.3202,-0.3202,-0.3213,-0.3224,-0.3217,-0.3223,-0.3235,-0.3224,-0.3233,-0.3232,-0.3221,-0.3209,-0.3207,-0.3205,-0.3183,-0.3178,-0.3174,0,0,0,0,0,0,-0.3193,-0.3203,-0.3211,-0.3196,-0.3198,-0.3206,-0.3198,-0.3208,-0.3207,-0.3209,-0.3223,-0.3224,-0.3212,-0.3215,-0.3225,-0.3203,-0.3218,-0.3216,-0.3202,-0.3197,-0.3194,-0.3194,-0.3245,0,0,0,0,0,-0.3186,-0.3181,-0.319,-0.3176,-0.3176,-0.3187,-0.3185,-0.3193,-0.3196,-0.3197,-0.3202,-0.3205,-0.3202,-0.32,-0.3197,-0.3182,-0.3184,-0.3174,-0.317,-0.3167,-0.3166,-0.3159,-0.3155,-0.3198,-0.3198,-0.3198,0,0,-0.3171,-0.3175,-0.3171,-0.3171,-0.3173,-0.3168,-0.3187,-0.3181,-0.3177,-0.3196,-0.3187,-0.3191,-0.3195,-0.3182,-0.3177,-0.3184,-0.3154,-0.3165,-0.3163,-0.3163,-0.3157,-0.3153,-0.3149,-0.3197,-0.3197,-0.3197,0,0,-0.3141,-0.3143,-0.3133,-0.3135,-0.3139,-0.3146,-0.3143,-0.315,-0.3154,-0.3145,-0.3159,-0.3155,-0.315,-0.3152,-0.3153,-0.3125,-0.3136,-0.3124,-0.3106,-0.3099,-0.3096,-0.3093,-0.3084,-0.3081,-0.3122,-0.3122,-0.3122,0,-0.3122,-0.3114,-0.3126,-0.3119,-0.3119,-0.3136,-0.3126,-0.3127,-0.313,-0.313,-0.3138,-0.3133,-0.3136,-0.3125,-0.3118,-0.3117,-0.3116,-0.3124,-0.3095,-0.3092,-0.309,-0.3082,-0.3078,-0.312,-0.312,-0.3121,-0.3121,0,-0.3092,-0.3086,-0.3077,-0.308,-0.3079,-0.307,-0.3081,-0.3078,-0.3087,-0.3093,-0.3085,-0.309,-0.3089,-0.3087,-0.3095,-0.3078,-0.3082,-0.3093,-0.3108,-0.3084,-0.3077,-0.3074,-0.3118,-0.3119,-0.3119,-0.312,0,0,-0.3046,-0.3056,-0.3053,-0.3055,-0.306,-0.3057,-0.3049,-0.3049,-0.3047,-0.3049,-0.3043,-0.3039,-0.3049,-0.3049,-0.3058,-0.3052,-0.3031,-0.3063,-0.3064,-0.3058,-0.3014,-0.3007,-0.3003,-0.3038,-0.3038,-0.3037,-0.3014,0,-0.3019,-0.3007,-0.3018,-0.3004,-0.3,-0.3016,-0.3009,-0.3012,-0.3018,-0.3016,-0.3023,-0.302,-0.3032,-0.3033,-0.3028,-0.3035,-0.3023,-0.3036,-0.3035,-0.3034,-0.3034,-0.2999,-0.2991,-0.2969,-0.3011,-0.3011,-0.301,0,-0.2986,-0.2986,-0.2972,-0.298,-0.2978,-0.2972,-0.2974,-0.2971,-0.2975,-0.298,-0.2981,-0.2992,-0.2986,-0.3,-0.2993,-0.3002,-0.3002,-0.3005,-0.3004,-0.3006,-0.3022,-0.3,-0.2962,-0.2959,-0.3006,-0.3006,-0.3006,0,-0.2956,-0.2953,-0.2944,-0.2945,-0.2954,-0.2949,-0.2953,-0.2958,-0.2957,-0.2959,-0.2959,-0.2959,-0.2959,-0.296,-0.2971,-0.298,-0.2962,-0.2977,-0.2967,-0.2967,-0.2963,-0.2964,-0.2926,-0.2961,-0.2961,-0.2961,-0.2961,0,-0.2925,-0.2916,-0.2931,-0.2926,-0.2917,-0.2929,-0.292,-0.2925,-0.2929,-0.2926,-0.2939,-0.2936,-0.295,-0.2948,-0.2956,-0.295,-0.2949,-0.2954,-0.2956,-0.2953,-0.2953,-0.2954,-0.2956,-0.296,-0.296,-0.2961,-0.2961,0,-0.2891,-0.29,-0.2892,-0.2901,-0.2903,-0.2896,-0.2904,-0.29,-0.2907,-0.2902,-0.2902,-0.2913,-0.2912,-0.2922,-0.2922,-0.2928,-0.2918,-0.2923,-0.2917,-0.2919,-0.2909,-0.291,-0.2871,-0.2867,-0.2904,-0.2903,-0.2903,0,-0.2871,-0.2864,-0.2873,-0.2872,-0.2874,-0.2872,-0.2872,-0.2884,-0.2883,-0.2888,-0.2884,-0.2884,-0.2884,-0.2882,-0.289,-0.2891,-0.2896,-0.2883,-0.2897,-0.2894,-0.2898,-0.2899,-0.2899,-0.288,-0.288,-0.2879,-0.2879,0,-0.2835,-0.2841,-0.284,-0.2841,-0.2841,-0.2842,-0.2845,-0.2843,-0.2856,-0.2855,-0.2854,-0.2855,-0.2856,-0.2856,-0.2858,-0.2862,-0.2873,-0.2875,-0.2873,-0.287,-0.2867,-0.287,-0.291,-0.2876,-0.2876,-0.2876,-0.2876,-0.2877,-0.2809,-0.2804,-0.281,-0.2809,-0.2812,-0.2814,-0.2811,-0.2818,-0.2817,-0.2819,-0.2826,-0.2824,-0.283,-0.2835,-0.2838,-0.2837,-0.2843,-0.284,-0.2839,-0.2839,-0.2837,-0.2866,-0.2837,-0.2837,-0.2837,-0.2837,-0.2837,0,-0.2775,-0.278,-0.2779,-0.2782,-0.2782,-0.2791,-0.2795,-0.2794,-0.2792,-0.2796,-0.2797,-0.2796,-0.2797,-0.2805,-0.2807,-0.2804,-0.281,-0.2805,-0.2805,-0.2807,-0.2831,-0.2833,-0.2801,-0.2801,-0.2801,-0.2801,-0.2801,-0.2801,-0.2758,-0.2751,-0.2757,-0.2753,-0.2758,-0.2756,-0.2757,-0.276,-0.2763,-0.2762,-0.2762,-0.2768,-0.2774,-0.2776,-0.2777,-0.278,-0.2781,-0.2774,-0.2778,-0.2801,-0.2805,-0.2808,-0.281,-0.2774,-0.2774,-0.2755,-0.2754,-0.2754]}]]